[[{"header":{"parameterUnit":"m.s-1","parameterCategory":2,"la1":30.2992,"la2":30.254,"lo1":-89.0895,"lo2":-89.0443,"dy":0.0025,"dx":0.0025,"nx":19,"ny":19,"refTime":"2026-04-25T09:00:00:Z","depth":"0","parameterNumber":2,"parameterNumberName":"U-component_of_CURRENTS"},"data":[0,0,0,0.3961,0.3963,0.4061,0.4062,0.4216,0.4218,0,0,0,0,0,0,0,0,0,0,0,0.3928,0.3929,0.3961,0.3964,0.4061,0.4062,0.4216,0.4218,0,0,0,0,0,0,0,0,0,0,0,0.3927,0.3928,0.3929,0.3964,0.4061,0.4062,0.4216,0.4134,0,0,0,0,0,0,0,0,0,0,0.4036,0.3982,0.3928,0.3929,0.3965,0.4061,0.4062,0.413,0.414,0.4181,0,0.4199,0,0.4215,0.4229,0.423,0,0,0,0.3963,0.3974,0.402,0.3929,0.3966,0.4061,0.4017,0.4135,0.4146,0.4193,0.4202,0.4207,0.4217,0.423,0.4231,0.4433,0.4434,0,0,0.3957,0.3928,0.4013,0.4027,0.3997,0.4014,0.402,0.4141,0.4144,0.4202,0.4211,0.422,0.4231,0.4232,0.4432,0.4433,0,0,0,0.3942,0.3924,0.3966,0.4021,0.4038,0.4017,0.4024,0.4138,0.4158,0.4213,0.4222,0.4232,0.4234,0.4431,0.4433,0.4402,0,0,0,0.3939,0.3916,0.3964,0.3945,0.4035,0.408,0.4018,0.415,0.4164,0.4221,0.4232,0.4236,0.443,0.4432,0.4401,0.4344,0,0,0,0.3922,0.3913,0.3931,0.3944,0.3989,0.4079,0.4105,0.4153,0.417,0.423,0.4236,0.4429,0.4432,0.4399,0.4344,0.4356,0,0,0,0.388,0.39,0.393,0.3968,0.3988,0.4082,0.4104,0.4179,0.4232,0.4233,0.443,0.4433,0.4399,0.4344,0.4356,0.4309,0.4306,0,0,0.3882,0.3899,0.3928,0.3957,0.4028,0.4068,0.4156,0.4234,0.4284,0.439,0.4394,0.4401,0.4344,0.4356,0.4443,0.4435,0,0,0,0.3915,0.3934,0.3966,0.4012,0.4085,0.414,0.4226,0.4276,0.4374,0.4327,0.4458,0.4423,0.443,0.4404,0.44,0.412,0.4443,0.4443,0.4443,0.3827,0.39,0.3952,0.4048,0.4101,0.4208,0.4262,0.435,0.4411,0.4462,0.4441,0.4482,0.4459,0.4454,0.4167,0.4515,0.4515,0.4515,0.4515,0.3829,0.3858,0.3943,0.4016,0.4088,0.4156,0.4289,0.4344,0.4444,0.4478,0.4489,0.4427,0.4446,0.4142,0.4514,0.4514,0.4514,0.4514,0.4514,0.3763,0.3789,0.385,0.3937,0.3991,0.4099,0.4163,0.4272,0.4383,0.4408,0.4415,0.4415,0.4107,0.4437,0.4437,0.4437,0.4437,0.4437,0.4437,0.3648,0.3724,0.375,0.385,0.3874,0.3931,0.4082,0.4163,0.4286,0.4361,0.4362,0.4091,0.4458,0.4414,0.4434,0.4435,0.4435,0.4435,0.4435,0.3548,0.3577,0.3622,0.3651,0.3725,0.3708,0.3895,0.4051,0.4176,0.4223,0.3972,0.4354,0.4351,0.4356,0.4312,0.4304,0.4304,0.4304,0.4304,0.343,0.347,0.3476,0.3495,0.3538,0.3591,0.3572,0.3694,0.3783,0.3727,0.3757,0.3721,0.3739,0.3698,0.3718,0.366,0.3487,0.3485,0.3484,0.3324,0.3368,0.331,0.338,0.3428,0.3433,0.3282,0.3143,0.3299,0.3421,0.3367,0.3402,0.3322,0.3374,0.3296,0.3346,0.325,0,0]},{"header":{"parameterUnit":"m.s-1","parameterCategory":2,"la1":30.2992,"la2":30.254,"lo1":-89.0895,"lo2":-89.0443,"dy":0.0025,"dx":0.0025,"nx":19,"ny":19,"refTime":"2026-04-25T09:00:00:Z","depth":"0","parameterNumber":3,"parameterNumberName":"V-component_of_CURRENTS"},"data":[0,0,0,-0.0365,-0.0367,-0.0395,-0.0395,-0.0342,-0.0342,0,0,0,0,0,0,0,0,0,0,0,-0.0337,-0.0337,-0.0365,-0.0367,-0.0395,-0.0395,-0.0342,-0.0342,0,0,0,0,0,0,0,0,0,0,0,-0.0336,-0.0337,-0.0338,-0.0367,-0.0395,-0.0395,-0.0342,-0.0335,0,0,0,0,0,0,0,0,0,0,-0.0316,-0.0303,-0.0337,-0.0338,-0.0368,-0.0395,-0.0395,-0.0336,-0.0336,-0.0314,0,-0.033,0,-0.0356,-0.0339,-0.0339,0,0,0,-0.0335,-0.0303,-0.0331,-0.0338,-0.0368,-0.0395,-0.0373,-0.0336,-0.0336,-0.0314,-0.033,-0.0329,-0.0355,-0.0339,-0.0339,-0.0285,-0.0285,0,0,-0.0334,-0.0317,-0.0331,-0.0332,-0.039,-0.0373,-0.0375,-0.0337,-0.0329,-0.033,-0.0329,-0.0354,-0.0339,-0.0338,-0.0286,-0.0285,0,0,0,-0.0351,-0.0315,-0.0345,-0.0332,-0.0357,-0.0374,-0.0377,-0.0329,-0.0346,-0.0328,-0.0354,-0.0338,-0.0338,-0.0286,-0.0285,-0.0223,0,0,0,-0.0348,-0.0328,-0.0344,-0.0331,-0.0359,-0.0355,-0.0369,-0.0347,-0.0345,-0.0354,-0.0338,-0.0337,-0.0286,-0.0286,-0.0226,-0.0154,0,0,0,-0.0333,-0.0326,-0.0339,-0.033,-0.0362,-0.0357,-0.0369,-0.0347,-0.0362,-0.0339,-0.0337,-0.0286,-0.0286,-0.0228,-0.0159,-0.005,0,0,0,-0.03,-0.0299,-0.0338,-0.0337,-0.0362,-0.0375,-0.0369,-0.0366,-0.0348,-0.0338,-0.0286,-0.0286,-0.0228,-0.0162,-0.0055,0.0136,0.0172,0,0,-0.0277,-0.0295,-0.0295,-0.0332,-0.0333,-0.0368,-0.0329,-0.0309,-0.0326,-0.0288,-0.0287,-0.0225,-0.0159,-0.0051,0.0175,0.0211,0,0,0,-0.0273,-0.0267,-0.0277,-0.0288,-0.032,-0.029,-0.031,-0.029,-0.0252,-0.0321,-0.0228,-0.0188,-0.0122,-0.0017,0.0011,-0.0016,-0.0282,-0.0282,-0.0282,-0.0179,-0.0211,-0.0195,-0.0228,-0.0225,-0.0232,-0.0186,-0.016,-0.0219,-0.0192,-0.0142,-0.0019,0.009,0.0114,0.0082,-0.0172,-0.0171,-0.0171,-0.0171,-0.0116,-0.0112,-0.0116,-0.0111,-0.0105,-0.0075,-0.004,-0.0056,0.0023,-0.0066,-0.0006,0.0037,0.0149,0.0104,-0.0167,-0.0168,-0.0168,-0.0169,-0.0169,-0.0055,-0.0061,-0.0052,-0.002,0.0038,0.0035,0.0159,0.0129,0.0119,0.0166,0.029,0.029,0.0261,0.018,0.0181,0.0181,0.0182,0.0183,0.0183,-0.001,-0.0005,0.0044,0.0077,0.0124,0.0196,0.0263,0.0334,0.0417,0.0419,0.042,0.0319,0.009,0.0088,0.0195,0.0193,0.0192,0.019,0.019,0.0044,0.0052,0.0123,0.0179,0.0292,0.0448,0.0495,0.071,0.0765,0.0861,0.0714,0.0572,0.0592,0.057,0.058,0.0809,0.0809,0.0809,0.0809,0.0089,0.0095,0.0207,0.0315,0.0449,0.0569,0.0893,0.1067,0.1088,0.1084,0.0948,0.0873,0.085,0.0876,0.0847,0.0859,0.1153,0.1153,0.1153,0.0149,0.0166,0.0271,0.036,0.0519,0.0732,0.1077,0.1386,0.1359,0.1152,0.0875,0.086,0.0722,0.0687,0.0696,0.0658,0.0664,0,0]}],[{"header":{"parameterUnit":"m.s-1","parameterCategory":2,"la1":30.2992,"la2":30.254,"lo1":-89.0895,"lo2":-89.0443,"dy":0.0025,"dx":0.0025,"nx":19,"ny":19,"refTime":"2026-04-25T09:00:00:Z","depth":"2","parameterNumber":2,"parameterNumberName":"U-component_of_CURRENTS"},"data":[0,0,0,0.2825,0.2827,0.2898,0.2899,0.2983,0.2984,0,0,0,0,0,0,0,0,0,0,0,0.2819,0.282,0.2825,0.2827,0.2898,0.2899,0.2983,0.2984,0,0,0,0,0,0,0,0,0,0,0,0.2818,0.282,0.2821,0.2827,0.2898,0.2899,0.2983,0.2931,0,0,0,0,0,0,0,0,0,0,0.2862,0.2851,0.2819,0.2821,0.2828,0.2898,0.2899,0.2928,0.2934,0.2949,0,0.2978,0,0.2976,0.2989,0.299,0,0,0,0.2827,0.2847,0.287,0.2821,0.2828,0.2898,0.2866,0.2931,0.2938,0.2956,0.2979,0.2982,0.2977,0.299,0.299,0.3204,0.3206,0,0,0.2823,0.2824,0.2865,0.2874,0.2871,0.2864,0.2868,0.2935,0.295,0.2979,0.2983,0.2979,0.299,0.2991,0.3203,0.3205,0,0,0,0.2812,0.2822,0.2843,0.2871,0.2881,0.2866,0.2871,0.2947,0.2956,0.2984,0.298,0.2991,0.2992,0.3201,0.3204,0.3263,0,0,0,0.2809,0.2815,0.2842,0.2842,0.288,0.2913,0.2881,0.2952,0.2959,0.2979,0.2991,0.2993,0.3199,0.3202,0.3257,0.3192,0,0,0,0.2811,0.2814,0.2831,0.2842,0.2871,0.2912,0.2925,0.2953,0.2956,0.299,0.2993,0.3198,0.3202,0.3252,0.3187,0.3254,0,0,0,0.2797,0.2825,0.2832,0.2883,0.287,0.2955,0.2925,0.3001,0.3043,0.2991,0.3199,0.3203,0.325,0.3184,0.325,0.2979,0.2973,0,0,0.2816,0.2828,0.2862,0.2869,0.2948,0.2944,0.3049,0.3093,0.311,0.3171,0.3177,0.3259,0.3187,0.3253,0.3217,0.3203,0,0,0,0.2858,0.2876,0.2907,0.2961,0.3023,0.3066,0.3127,0.3169,0.3268,0.3152,0.3327,0.3278,0.3318,0.3151,0.3142,0.3223,0.3222,0.3222,0.3222,0.282,0.2885,0.294,0.302,0.3082,0.3183,0.3233,0.3308,0.3349,0.3434,0.3382,0.3531,0.336,0.3348,0.3492,0.3492,0.3493,0.3493,0.3493,0.2825,0.2863,0.2943,0.3017,0.3102,0.3192,0.3318,0.3381,0.3503,0.3506,0.3546,0.3286,0.3341,0.3499,0.3498,0.3497,0.3497,0.3496,0.3496,0.2784,0.2817,0.2865,0.2971,0.3054,0.3175,0.3248,0.3381,0.35,0.355,0.3415,0.341,0.3495,0.3628,0.3628,0.3628,0.3628,0.3629,0.3629,0.2729,0.2779,0.2814,0.2924,0.2968,0.3064,0.3226,0.3275,0.3349,0.3403,0.3403,0.3575,0.3571,0.3504,0.363,0.363,0.3629,0.3629,0.3629,0.2701,0.2711,0.2751,0.2788,0.2881,0.2813,0.3019,0.3007,0.3141,0.3092,0.333,0.3337,0.3273,0.3276,0.3204,0.3244,0.3244,0.3244,0.3244,0.265,0.2674,0.2667,0.2669,0.2686,0.2687,0.2498,0.2464,0.2654,0.2732,0.2754,0.2657,0.2683,0.2581,0.2601,0.2513,0.2374,0.2373,0.2371,0.2607,0.262,0.2567,0.2578,0.2555,0.2459,0.2101,0.1842,0.2006,0.2338,0.2619,0.3182,0.3097,0.3116,0.3006,0.302,0.2897,0,0]},{"header":{"parameterUnit":"m.s-1","parameterCategory":2,"la1":30.2992,"la2":30.254,"lo1":-89.0895,"lo2":-89.0443,"dy":0.0025,"dx":0.0025,"nx":19,"ny":19,"refTime":"2026-04-25T09:00:00:Z","depth":"2","parameterNumber":3,"parameterNumberName":"V-component_of_CURRENTS"},"data":[0,0,0,-0.0138,-0.014,-0.02,-0.02,-0.0196,-0.0196,0,0,0,0,0,0,0,0,0,0,0,-0.0113,-0.0114,-0.0138,-0.014,-0.02,-0.02,-0.0196,-0.0196,0,0,0,0,0,0,0,0,0,0,0,-0.0113,-0.0114,-0.0114,-0.014,-0.02,-0.02,-0.0196,-0.0168,0,0,0,0,0,0,0,0,0,0,-0.0119,-0.0107,-0.0113,-0.0114,-0.0141,-0.02,-0.02,-0.0168,-0.017,-0.0149,0,-0.0167,0,-0.0186,-0.0195,-0.0195,0,0,0,-0.0129,-0.0105,-0.0129,-0.0114,-0.0141,-0.02,-0.017,-0.017,-0.0172,-0.0151,-0.0167,-0.0168,-0.0186,-0.0195,-0.0195,-0.0149,-0.0149,0,0,-0.0126,-0.0113,-0.0127,-0.0131,-0.0167,-0.0168,-0.0172,-0.0172,-0.0172,-0.0167,-0.0168,-0.0186,-0.0195,-0.0194,-0.015,-0.0149,0,0,0,-0.0124,-0.0111,-0.0136,-0.013,-0.0151,-0.017,-0.0175,-0.0172,-0.0183,-0.0168,-0.0186,-0.0194,-0.0194,-0.015,-0.015,-0.0077,0,0,0,-0.0121,-0.0111,-0.0134,-0.0125,-0.0151,-0.0173,-0.0174,-0.0183,-0.0184,-0.0186,-0.0194,-0.0194,-0.0151,-0.015,-0.008,-0.0006,0,0,0,-0.0109,-0.0109,-0.0121,-0.0125,-0.0158,-0.0174,-0.0184,-0.0184,-0.0195,-0.0195,-0.0194,-0.0151,-0.015,-0.0082,-0.0012,0.0139,0,0,0,-0.0086,-0.0081,-0.0121,-0.0114,-0.0157,-0.0165,-0.0185,-0.0198,-0.0199,-0.0194,-0.0151,-0.015,-0.0083,-0.0015,0.0133,0.0226,0.0259,0,0,-0.0059,-0.0078,-0.0071,-0.0107,-0.0096,-0.0155,-0.0113,-0.0135,-0.0173,-0.0144,-0.0144,-0.0079,-0.0012,0.0138,0.0276,0.0308,0,0,0,-0.0048,-0.0038,-0.0043,-0.005,-0.0079,-0.0055,-0.0101,-0.01,-0.0097,-0.0173,-0.0082,-0.0041,0.0052,0.0095,0.012,-0.0146,-0.0146,-0.0146,-0.0146,0.0028,0.0012,0.0042,0.003,0.0026,0.001,0.0043,0.0037,-0.004,-0.003,0.0014,0.0175,0.0217,0.0238,-0.0014,-0.0013,-0.0013,-0.0013,-0.0013,0.0111,0.0125,0.0127,0.0143,0.0144,0.016,0.0188,0.0154,0.0226,0.0103,0.0188,0.0162,0.0271,-0.0007,-0.0008,-0.0009,-0.001,-0.001,-0.001,0.0172,0.0171,0.0189,0.0228,0.0265,0.0251,0.039,0.0354,0.0324,0.0385,0.046,0.0459,0.0279,0.0418,0.0419,0.042,0.0421,0.0421,0.0422,0.0202,0.0228,0.028,0.0314,0.0347,0.0415,0.05,0.0588,0.0641,0.0593,0.0594,0.0323,0.0309,0.0306,0.0437,0.0434,0.0432,0.0431,0.043,0.0252,0.0264,0.0356,0.041,0.0532,0.0702,0.0776,0.096,0.1022,0.1073,0.0743,0.0731,0.0744,0.0722,0.073,0.0964,0.0964,0.0964,0.0964,0.0279,0.0295,0.0434,0.0569,0.074,0.0851,0.1138,0.1189,0.1136,0.1033,0.1029,0.09,0.0878,0.089,0.0864,0.087,0.114,0.114,0.114,0.0331,0.0362,0.0486,0.062,0.0829,0.105,0.1263,0.1246,0.1106,0.1139,0.0971,0.0993,0.0785,0.0758,0.0752,0.072,0.072,0,0]}],[{"header":{"parameterUnit":"m.s-1","parameterCategory":2,"la1":30.2992,"la2":30.254,"lo1":-89.0895,"lo2":-89.0443,"dy":0.0025,"dx":0.0025,"nx":19,"ny":19,"refTime":"2026-04-25T09:00:00:Z","depth":"4","parameterNumber":2,"parameterNumberName":"U-component_of_CURRENTS"},"data":[0,0,0,0.0699,0.0703,0.0777,0.0776,0.081,0.0811,0,0,0,0,0,0,0,0,0,0,0,0.0615,0.0616,0.0699,0.0704,0.0777,0.0776,0.081,0.0811,0,0,0,0,0,0,0,0,0,0,0,0.0615,0.0616,0.0617,0.0704,0.0777,0.0776,0.081,0.0752,0,0,0,0,0,0,0,0,0,0,0.0681,0.0664,0.0616,0.0617,0.0705,0.0777,0.0776,0.0749,0.0756,0.0782,0,0.0802,0,0.0866,0.0818,0.0819,0,0,0,0.0633,0.0659,0.0678,0.0617,0.0707,0.0777,0.0724,0.0753,0.076,0.079,0.0804,0.0807,0.0867,0.0819,0.082,0.0974,0.0975,0,0,0.0629,0.0628,0.0672,0.0682,0.0739,0.0722,0.0727,0.0757,0.0771,0.0804,0.0809,0.0867,0.082,0.0821,0.0974,0.0975,0,0,0,0.0665,0.0625,0.0642,0.0678,0.073,0.0726,0.0732,0.0768,0.0774,0.0811,0.0868,0.082,0.0822,0.0973,0.0974,0.1086,0,0,0,0.0659,0.0652,0.064,0.064,0.073,0.0772,0.0741,0.0768,0.0777,0.0868,0.0821,0.0823,0.0972,0.0973,0.108,0.1126,0,0,0,0.061,0.0649,0.0659,0.064,0.0711,0.0772,0.0776,0.077,0.0816,0.0819,0.0823,0.0971,0.0973,0.1076,0.1118,0.1202,0,0,0,0.06,0.06,0.0658,0.0672,0.0711,0.0724,0.0776,0.0799,0.0797,0.0821,0.0972,0.0974,0.1074,0.1114,0.1197,0.0943,0,0,0,0.0583,0.0599,0.06,0.0655,0.0681,0.0708,0.0771,0.0811,0.0845,0.0943,0.0947,0.1082,0.1118,0.1201,0.1067,0,0,0,0,0.0582,0.0587,0.0594,0.0643,0.067,0.078,0.0817,0.0868,0.0999,0.0875,0.1093,0.1112,0.1161,0.0998,0.0984,0.0984,0.0984,0.0983,0.0983,0.0614,0.0611,0.062,0.0655,0.0695,0.0822,0.0903,0.1004,0.1016,0.1126,0.1212,0.1361,0.1193,0.1221,0.1221,0.1222,0.1222,0.1223,0.1223,0.0616,0.0608,0.0658,0.067,0.08,0.0883,0.1071,0.1151,0.1348,0.1326,0.1368,0.1136,0.1234,0.1232,0.123,0.1229,0.1228,0.1227,0.1227,0.0652,0.0623,0.0668,0.0709,0.0838,0.0982,0.1144,0.1318,0.1454,0.1539,0.1382,0.1445,0.1427,0.1586,0.1586,0.1587,0.1587,0.1588,0.1588,0.0645,0.0658,0.0681,0.0736,0.0818,0.0972,0.1233,0.1351,0.1521,0.1487,0.1598,0.1483,0.1471,0.1448,0.1598,0.1596,0.1595,0.1594,0.1593,0.0579,0.0627,0.0627,0.07,0.0818,0.0921,0.1176,0.1325,0.1452,0.1474,0.1445,0.145,0.1387,0.1378,0.1348,0.1475,0.1472,0.147,0,0.0554,0.0563,0.0558,0.0621,0.0712,0.0883,0.1015,0.1145,0.1291,0.1245,0.1453,0.1415,0.1418,0.1337,0.1325,0.1284,0,0,0,0.0509,0.0518,0.049,0.0527,0.0645,0.0823,0.1022,0.1036,0.1265,0.1279,0.1402,0.142,0.1462,0.1625,0.1541,0.1527,0.1485,0,0]},{"header":{"parameterUnit":"m.s-1","parameterCategory":2,"la1":30.2992,"la2":30.254,"lo1":-89.0895,"lo2":-89.0443,"dy":0.0025,"dx":0.0025,"nx":19,"ny":19,"refTime":"2026-04-25T09:00:00:Z","depth":"4","parameterNumber":3,"parameterNumberName":"V-component_of_CURRENTS"},"data":[0,0,0,0.0457,0.0457,0.0458,0.0458,0.0524,0.0524,0,0,0,0,0,0,0,0,0,0,0,0.0488,0.0488,0.0457,0.0457,0.0458,0.0458,0.0524,0.0524,0,0,0,0,0,0,0,0,0,0,0,0.0487,0.0488,0.0489,0.0457,0.0458,0.0458,0.0523,0.051,0,0,0,0,0,0,0,0,0,0,0.0503,0.0496,0.0488,0.0489,0.0457,0.0458,0.0458,0.0509,0.0511,0.0537,0,0.055,0,0.052,0.0529,0.0529,0,0,0,0.0472,0.0494,0.0507,0.0489,0.0456,0.0458,0.0462,0.051,0.0512,0.054,0.055,0.0551,0.0521,0.0529,0.0529,0.0613,0.0613,0,0,0.0472,0.0474,0.0505,0.0509,0.0475,0.0462,0.0462,0.0511,0.0515,0.055,0.0552,0.0522,0.053,0.053,0.0612,0.0613,0,0,0,0.0461,0.0474,0.0484,0.0508,0.0493,0.0461,0.0461,0.0513,0.0521,0.0552,0.0523,0.053,0.0531,0.0612,0.0612,0.0668,0,0,0,0.0462,0.0466,0.0485,0.0484,0.0492,0.0486,0.0463,0.0519,0.0521,0.0523,0.053,0.0531,0.0611,0.0612,0.0665,0.0691,0,0,0,0.0484,0.0467,0.0476,0.0484,0.0475,0.0485,0.0495,0.0518,0.0503,0.0529,0.0532,0.0611,0.0612,0.0663,0.0687,0.0674,0,0,0,0.0474,0.0492,0.0477,0.0497,0.0476,0.0523,0.0494,0.0537,0.0568,0.053,0.0611,0.0612,0.0662,0.0685,0.0673,0.0633,0,0,0,0.0489,0.0493,0.0509,0.0495,0.0551,0.0523,0.0569,0.0596,0.0586,0.0601,0.0603,0.0666,0.0687,0.0674,0.0691,0,0,0,0,0.0509,0.0532,0.0546,0.0573,0.0596,0.0622,0.0636,0.0622,0.0645,0.0601,0.0671,0.0682,0.0672,0.0644,0.0617,0.0617,0.0617,0.0617,0.0617,0.0506,0.0544,0.0593,0.0654,0.0687,0.0702,0.071,0.0696,0.0699,0.0713,0.0731,0.0765,0.0741,0.0732,0.0733,0.0733,0.0733,0.0733,0.0734,0.055,0.0583,0.0641,0.0716,0.0755,0.0803,0.0792,0.0784,0.0783,0.0775,0.0761,0.071,0.0739,0.0738,0.0737,0.0737,0.0736,0.0736,0.0736,0.0546,0.0575,0.0645,0.0754,0.0824,0.0863,0.0885,0.0876,0.0838,0.0843,0.079,0.079,0.0779,0.084,0.084,0.084,0.084,0.084,0.084,0.0519,0.0591,0.0683,0.0789,0.0868,0.0933,0.0956,0.0944,0.0904,0.0849,0.0866,0.08,0.0796,0.0784,0.0841,0.0841,0.0841,0.0841,0.0841,0.0544,0.057,0.0696,0.0791,0.0944,0.0971,0.1017,0.0953,0.0917,0.0854,0.0824,0.0825,0.0791,0.0788,0.0773,0.083,0.0829,0.0829,0,0.0536,0.0559,0.0713,0.084,0.0928,0.0993,0.0967,0.0936,0.0856,0.0837,0.0888,0.0856,0.0855,0.0818,0.0814,0.0799,0,0,0,0.0561,0.0603,0.068,0.08,0.092,0.0922,0.0943,0.0906,0.0887,0.084,0.0821,0.0823,0.0868,0.0845,0.0793,0.0789,0.0766,0,0]}]]